TimeMDT,TemperatureF,Dew PointF,Humidity,Sea Level PressureIn,VisibilityMPH,Wind Direction,Wind SpeedMPH,Gust SpeedMPH,PrecipitationIn,Events,Conditions,WindDirDegrees,DateUTC
12:53 AM,41.0,39.0,93,30.01,10.0,NNW,5.8,-,N/A,,Clear,340,2013-05-09 06:53:00
1:53 AM,39.9,37.0,89,30.01,10.0,WNW,6.9,-,N/A,,Clear,290,2013-05-09 07:53:00
2:53 AM,39.9,37.0,89,30.01,10.0,NW,8.1,-,N/A,,Clear,310,2013-05-09 08:53:00
3:53 AM,43.0,39.0,86,30.02,10.0,NW,8.1,-,N/A,,Mostly Cloudy,320,2013-05-09 09:53:00
4:53 AM,42.1,37.9,85,30.02,10.0,NW,9.2,-,N/A,,Clear,320,2013-05-09 10:53:00
5:53 AM,43.0,39.0,86,30.08,10.0,NNW,6.9,-,N/A,,Mostly Cloudy,340,2013-05-09 11:53:00
6:53 AM,46.9,42.1,83,30.09,10.0,North,6.9,-,N/A,,Scattered Clouds,360,2013-05-09 12:53:00
7:53 AM,52.0,44.1,74,30.10,10.0,NNE,10.4,-,N/A,,Mostly Cloudy,30,2013-05-09 13:53:00
8:53 AM,55.9,43.0,62,30.11,10.0,North,15.0,-,N/A,,Clear,10,2013-05-09 14:53:00
9:53 AM,59.0,42.1,53,30.11,10.0,NNE,19.6,25.3,0.01,,Clear,30,2013-05-09 15:53:00
11:53 AM,61.0,37.9,42,30.10,10.0,NNE,17.3,25.3,N/A,,Mostly Cloudy,30,2013-05-09 17:53:00
12:53 PM,60.1,39.0,46,30.12,10.0,NE,15.0,21.9,0.00,Rain,Light Rain,50,2013-05-09 18:53:00
1:53 PM,61.0,39.0,44,30.11,10.0,East,18.4,25.3,0.00,,Overcast,90,2013-05-09 19:53:00
2:53 PM,60.1,39.0,46,30.10,10.0,East,13.8,-,N/A,,Overcast,90,2013-05-09 20:53:00
3:53 PM,64.0,37.0,37,30.06,10.0,East,17.3,27.6,N/A,,Mostly Cloudy,80,2013-05-09 21:53:00
4:53 PM,64.0,36.0,35,30.07,10.0,ENE,11.5,-,N/A,,Scattered Clouds,70,2013-05-09 22:53:00
6:53 PM,60.1,37.0,42,30.08,10.0,East,11.5,-,N/A,,Overcast,90,2013-05-10 00:53:00
7:53 PM,57.0,37.9,49,30.09,10.0,East,4.6,-,N/A,,Overcast,100,2013-05-10 01:53:00
8:53 PM,50.0,37.0,61,30.12,10.0,SE,5.8,-,N/A,,Scattered Clouds,130,2013-05-10 02:53:00
9:53 PM,44.1,35.1,71,30.14,10.0,SSE,3.5,-,N/A,,Clear,150,2013-05-10 03:53:00
11:53 PM,46.0,37.9,73,30.14,10.0,North,8.1,-,N/A,,Mostly Cloudy,350,2013-05-10 05:53:00